Weather History for Pian Rosa, Italy

Change the Weather History Date:

Friday, September 20, 2013

  Actual Average Record
Temperature  
Mean Temperature 28 °F -  
Max Temperature 30 °F 31 °F 41 °F (1997)
Min Temperature 26 °F 23 °F 15 °F (2008)
Degree Days  
Heating Degree Days 37    
Moisture  
Dew Point -3 °F    
Average Humidity 22    
Maximum Humidity 34    
Minimum Humidity 6    
Precipitation  
Precipitation 0.00 in - - ()
Sea Level Pressure  
Sea Level Pressure 30.31 in    
Wind  
Wind Speed 15 mph ()    
Max Wind Speed 26 mph    
Max Gust Speed -    
Visibility 9.7 miles    
Events      
Averages and records for this station are not official NWS values.
T = Trace of Precipitation, MM = Missing Value Source: Averaged Metar Reports

Daily Weather History Graph

Daily Weather History Graph

Search for Another Location

Airport:

Trip Planner

Search our weather history database for the weather conditions in past years. The results will help you decide how hot, cold, wet, or windy it might be!

Date:

Astronomy

Sep. 20, 2013 Rise Set
Actual Time 7:13 AM CEST 7:30 PM CEST
Civil Twilight 6:43 AM CEST 8:00 PM CEST
Nautical Twilight 6:08 AM CEST 8:35 PM CEST
Astronomical Twilight 5:32 AM CEST 9:11 PM CEST
Moon 7:47 PM CEST (9/20) 8:16 AM CEST (9/20)
Length of Visible Light 13h 16m
Length of Day
12h 17m
Full, 99% of the Moon is Illuminated
Sep 20
Full
Sep 27
Last Quarter
Oct 5
New
Oct 12
First Quarter
Oct 19
Full

Hourly Weather History & Observations

Time (CEST) Temp. Windchill Dew Point Humidity Pressure Visibility Wind Dir Wind Speed Gust Speed Precip Events Conditions
12:55 AM 28.4 °F 15.8 °F -7.6 °F 21% 30.24 in - ENE 18.4 mph - N/A   Clear
1:55 AM 30.2 °F 19.3 °F -4.0 °F 23% 30.24 in - ENE 15.0 mph - N/A   Clear
2:00 AM 30 °F - -4 °F 11%  in 9 mi ENE 15.0 mph - -   Clear
2:55 AM 30.2 °F 21.9 °F -5.8 °F 21% 30.24 in - NE 9.2 mph - N/A   Clear
3:55 AM 28.4 °F 17.5 °F -7.6 °F 21% 30.24 in - ENE 13.8 mph - N/A   Clear
4:55 AM 28.4 °F 16.6 °F -5.8 °F 23% 30.24 in - ENE 16.1 mph - N/A   Clear
5:00 AM 29 °F - -5 °F 10%  in 9 mi ENE 16.1 mph - -   Clear
5:55 AM 28.4 °F 17.5 °F -7.6 °F 21% 30.24 in - ENE 13.8 mph - N/A   Clear
6:55 AM 28.4 °F 16.2 °F -7.6 °F 21% 30.24 in - ENE 17.3 mph - N/A   Clear
7:55 AM 26.6 °F 12.7 °F -5.8 °F 24% 30.24 in 6.2 mi NE 20.7 mph - N/A   Partly Cloudy
8:00 AM 27 °F - -7 °F 11%  in 31 mi NE 20.7 mph - -   Scattered Clouds
8:55 AM 26.6 °F 14.3 °F -2.2 °F 29% 30.27 in 6.2 mi ENE 16.1 mph - N/A   Partly Cloudy
9:55 AM 28.4 °F 16.6 °F 3.2 °F 34% 30.27 in - ENE 16.1 mph - N/A   Clear
10:55 AM 28.4 °F 16.6 °F 3.2 °F 34% 30.30 in - ENE 16.1 mph - N/A   Clear
11:00 AM 28 °F - 4 °F 21%  in 31 mi ENE 16.1 mph - -   Clear
11:55 AM 30.2 °F 18.5 °F -2.2 °F 25% 30.33 in - ENE 17.3 mph - N/A   Clear
12:55 PM 28.4 °F 18.0 °F -2.2 °F 27% 30.33 in - ENE 12.7 mph - N/A   Clear
1:55 PM 30.2 °F 21.3 °F -0.4 °F 27% 30.36 in - ENE 10.4 mph - N/A   Clear
2:00 PM 29 °F - -1 °F 14%  in 31 mi ENE 10.4 mph - -  
2:55 PM 30.2 °F 18.9 °F 1.4 °F 29% 30.36 in - ENE 16.1 mph - N/A   Clear
3:55 PM 30.2 °F 18.1 °F -2.2 °F 25% 30.36 in - ENE 18.4 mph - N/A   Clear
4:55 PM 30.2 °F 18.1 °F -0.4 °F 27% 30.36 in - ENE 18.4 mph - N/A   Clear
5:00 PM 30 °F - -1 °F 13%  in 31 mi ENE 18.4 mph - -  
5:55 PM 30.2 °F 18.5 °F 1.4 °F 29% 30.36 in - ENE 17.3 mph - N/A   Clear
6:55 PM 28.4 °F 15.1 °F 1.4 °F 31% 30.36 in - ENE 20.7 mph - N/A   Clear
7:55 PM 28.4 °F 15.4 °F 3.2 °F 34% 30.36 in - ENE 19.6 mph - N/A   Clear
8:00 PM 28 °F - 3 °F 20%  in 19 mi ENE 19.6 mph - -   Clear
8:55 PM 28.4 °F - 1.4 °F 31% 30.39 in - ENE 2.3 mph - N/A   Clear
9:55 PM 28.4 °F 13.5 °F -9.4 °F 19% 30.39 in - ENE 26.5 mph - N/A   Clear
10:55 PM 28.4 °F 13.8 °F -14.8 °F 15% 30.39 in - ENE 25.3 mph - N/A   Clear
11:00 PM 28 °F - -14 °F 6%  in 9 mi ENE 25.3 mph - -  
11:55 PM 26.6 °F 11.7 °F -14.8 °F 16% 30.39 in - ENE 24.2 mph - N/A   Clear